Weather History for Tri-Cities, TN

Change the Weather History Date:

Thursday, January 10, 2013

  Actual Average Record
Temperature  
Mean Temperature 52 °F 35 °F  
Max Temperature 63 °F 45 °F 66 °F (1957)
Min Temperature 41 °F 25 °F -9 °F (1970)
Degree Days  
Heating Degree Days 13 30  
Month to date heating degree days 271 300  
Since 1 July heating degree days 1938 2029  
Cooling Degree Days 0 0  
Month to date cooling degree days 0 0  
Year to date cooling degree days 0 0  
Growing Degree Days 2 (Base 50)    
Moisture  
Dew Point 44 °F    
Average Humidity 78    
Maximum Humidity 100    
Minimum Humidity 55    
Precipitation  
Precipitation 0.00 in 0.11 in 1.72 in (2008)
Month to date precipitation 0.56 1.05  
Year to date precipitation 0.56 1.05  
Snow  
Snow 0.00 in 0.10 in - ()
Month to date snowfall T 1.4  
Since 1 July snowfall 0.6 4.1  
Snow Depth 0.00 in    
Sea Level Pressure  
Sea Level Pressure 30.40 in    
Wind  
Wind Speed 3 mph (East)    
Max Wind Speed 13 mph    
Max Gust Speed 18 mph    
Visibility 6 miles    
Events Fog    
T = Trace of Precipitation, MM = Missing Value Source: NWS Daily Summary

Daily Weather History Graph

Daily Weather History Graph

Search for Another Location

Airport:

Trip Planner

Search our weather history database for the weather conditions in past years. The results will help you decide how hot, cold, wet, or windy it might be!

Date:

Astronomy

Jan. 10, 2013 Rise Set
Actual Time 7:41 AM EST 5:33 PM EST
Civil Twilight 7:13 AM EST 6:01 PM EST
Nautical Twilight 6:41 AM EST 6:33 PM EST
Astronomical Twilight 6:10 AM EST 7:04 PM EST
Moon 6:20 AM EST (1/10) 4:39 PM EST (1/10)
Length of Visible Light 10h 48m
Length of Day
9h 51m
Waning Crescent, 2% of the Moon is Illuminated
Jan 10
Waning Crescent
Jan 11
New
Jan 18
First Quarter
Jan 26
Full
Feb 3
Last Quarter

Hourly Weather History & Observations

Time (EST) Temp. Windchill Dew Point Humidity Pressure Visibility Wind Dir Wind Speed Gust Speed Precip Events Conditions
12:53 AM 46.9 °F - 45.0 °F 93% 30.46 in 6.0 mi Calm Calm - N/A   Overcast
1:53 AM 46.9 °F - 45.0 °F 93% 30.47 in 6.0 mi Calm Calm - N/A   Overcast
2:53 AM 46.9 °F - 45.0 °F 93% 30.45 in 6.0 mi Calm Calm - N/A   Overcast
3:53 AM 46.0 °F - 45.0 °F 96% 30.44 in 5.0 mi Calm Calm - N/A   Mostly Cloudy
4:06 AM 46.9 °F - 45.0 °F 93% 30.45 in 7.0 mi Calm Calm - N/A   Scattered Clouds
4:47 AM 44.6 °F 42.2 °F 42.8 °F 93% 30.46 in 1.8 mi SW 4.6 mph - N/A   Clear
4:51 AM 42.8 °F 39.3 °F 42.8 °F 100% 30.46 in 0.8 mi SW 5.8 mph - N/A   Clear
4:53 AM 43.0 °F 40.3 °F 42.1 °F 97% 30.45 in 0.5 mi SW 4.6 mph - N/A Fog Fog
5:17 AM 43.0 °F - 42.1 °F 97% 30.46 in 0.8 mi Calm Calm - N/A   Mist
5:53 AM 43.0 °F - 42.1 °F 97% 30.44 in 0.5 mi Calm Calm - N/A Fog Fog
6:06 AM 42.1 °F 40.2 °F 41.0 °F 96% 30.45 in 0.2 mi North 3.5 mph - N/A Fog Fog
6:13 AM 43.0 °F 41.3 °F 42.1 °F 97% 30.45 in 0.5 mi North 3.5 mph - N/A Fog Fog
6:37 AM 42.1 °F 40.2 °F 42.1 °F 100% 30.46 in 1.0 mi NNE 3.5 mph - N/A   Mostly Cloudy
6:53 AM 43.0 °F - 43.0 °F 100% 30.44 in 2.5 mi Calm Calm - N/A   Mostly Cloudy
7:00 AM 43.0 °F - 42.1 °F 97% 30.47 in 2.5 mi Calm Calm - N/A   Mostly Cloudy
7:07 AM 43.0 °F 41.3 °F 42.1 °F 97% 30.47 in 6.0 mi South 3.5 mph - N/A   Mostly Cloudy
7:53 AM 43.0 °F - 42.1 °F 97% 30.46 in 6.0 mi Calm Calm - N/A   Mostly Cloudy
8:53 AM 45.0 °F - 44.1 °F 97% 30.46 in 8.0 mi Calm Calm - N/A   Mostly Cloudy
9:53 AM 48.9 °F - 45.0 °F 86% 30.45 in 10.0 mi Calm Calm - N/A   Mostly Cloudy
10:53 AM 52.0 °F - 42.1 °F 69% 30.44 in 10.0 mi East 4.6 mph - N/A   Mostly Cloudy
11:53 AM 55.0 °F - 41.0 °F 59% 30.40 in 10.0 mi East 4.6 mph - N/A   Mostly Cloudy
12:53 PM 57.9 °F - 43.0 °F 58% 30.36 in 10.0 mi ENE 4.6 mph - N/A   Mostly Cloudy
1:53 PM 60.1 °F - 44.1 °F 55% 30.33 in 10.0 mi ENE 3.5 mph - N/A   Mostly Cloudy
2:53 PM 61.0 °F - 46.9 °F 60% 30.32 in 10.0 mi East 3.5 mph - N/A   Mostly Cloudy
3:53 PM 62.1 °F - 46.9 °F 58% 30.31 in 10.0 mi ENE 4.6 mph - N/A   Mostly Cloudy
4:53 PM 62.1 °F - 48.0 °F 60% 30.32 in 10.0 mi Calm Calm - N/A   Mostly Cloudy
5:53 PM 57.0 °F - 48.0 °F 72% 30.31 in 10.0 mi Calm Calm - N/A   Mostly Cloudy
6:53 PM 53.1 °F - 46.9 °F 80% 30.31 in 10.0 mi Calm Calm - N/A   Mostly Cloudy
7:53 PM 55.9 °F - 46.9 °F 72% 30.30 in 10.0 mi Variable 3.5 mph - N/A   Mostly Cloudy
8:53 PM 55.0 °F - 46.9 °F 74% 30.30 in 10.0 mi SE 5.8 mph - N/A   Scattered Clouds
9:53 PM 55.9 °F - 46.9 °F 72% 30.27 in 10.0 mi Variable 4.6 mph - N/A   Scattered Clouds
10:53 PM 57.9 °F - 46.0 °F 65% 30.24 in 10.0 mi East 10.4 mph - N/A   Mostly Cloudy
11:53 PM 55.9 °F - 42.1 °F 60% 30.23 in 10.0 mi ESE 8.1 mph - N/A   Scattered Clouds